www.pogodaiklimat.ru

Погода и климат >> Архив погоды >> Индия >> Бихар >> Бхагалпур


ПОГОДА в Бхагалпуре

  • Прогноз погоды в Бхагалпуре
  • Монитор погоды в Бхагалпуре

АРХИВ ПОГОДЫ в Бхагалпуре

Время (UTC), дата Ветер
(напр.,м/с)
 
Видим.   Явления Облачность Т
(С)
Тd
(С)
f
(%)
Тe
(С)
Тes
(С)
Комфортность P
(гПа)
Po
(гПа)
Тmin
(С)
Tmax
(С)
R
(мм)
R24
(мм)
S
(см)
12 18.05 штиль 0 2000 м мгла 8/4 600 м
[Sc Ac trans]
+39.0 +26.0 48 +54 +54 опасность
перегрева
1001.4 996.0 +41.4
15 18.05 штиль 0 2000 м мгла 5/3 600 м
[Sc Ac trans]
+33.6 +25.8 64 +49 +49 опасность
перегрева
1003.6 998.1
18 18.05 штиль 0 2000 м мгла 5/3 600 м
[Sc Ac trans]
+32.0 +24.9 66 +45 +45 опасность
перегрева
1005.1 999.6
21 18.05 штиль 0 2000 м мгла 6/3 600 м
[Sc Ac trans]
+30.4 +23.8 68 +42 +42 опасность
перегрева
1004.4 998.9
00 19.05 штиль 0 1000 м дымка 4/1 600 м
[Sc Ac trans]
+28.0 +24.9 83 +40 +40 очень
душно
1005.2 999.6
03 19.05 СВ 1 2000 м мгла ясно +30.0 +24.6 73 +43 +56 опасность
перегрева
1006.9 1001.4 +26.6
06 19.05 СВ 2 2000 м ясно +38.6 +21.8 38 +46 +68 опасность
перегрева
1007.0 1001.6
09 19.05 З 2 2000 м 5/3 600 м
[Sc Ac trans]
+41.0 +20.5 31 +47 +55 опасность
перегрева
1003.6 998.3
12 19.05 штиль 0 2000 м 5/3 600 м
[Sc Ac trans]
+39.0 +21.6 37 +46 +47 опасность
перегрева
1004.2 998.8 +41.6
15 19.05 штиль 0 2000 м мгла ясно +33.0 +22.2 53 +42 +42 опасность
перегрева
1006.0 1000.5
18 19.05 штиль 0 2000 м мгла ясно +30.2 +22.9 65 +40 +40 очень
душно
1006.9 1001.4
21 19.05 штиль 0 2000 м мгла ясно +28.8 +21.7 66 +37 +37 очень
душно
1006.3 1000.7
00 20.05 штиль 0 1000 м мгла 3/3 600 м
[Sc]
+27.4 +21.7 71 +35 +35 очень
душно
1006.3 1000.7
03 20.05 штиль 0 2000 м мгла ясно +30.6 +22.4 62 +40 +55 опасность
солнечного
удара
1008.6 1003.1 +26.0
06 20.05 штиль 0 2000 м мгла 4/4 600 м
[Sc diur, vesp]
+40.0 +22.2 36 +48 +66 опасность
перегрева
1006.6 1001.2
09 20.05 СЗ 1 2000 м мгла 5/5 600 м
[Sc diur, vesp]
+41.6 +22.1 33 +49 +58 опасность
перегрева
1004.4 999.1
12 20.05 СЗ 2 2000 м мгла 8/5 600 м
[Cb calv Ac trans]
+38.6 +25.2 47 +52 +52 опасность
перегрева
1003.4 998.0 +41.6
15 20.05 СЗ 2 2000 м мгла 5/3 600 м
[Sc Ac trans]
+33.6 +22.6 53 +43 +43 опасность
перегрева
1006.0 1000.5
18 20.05 СЗ 2 2000 м мгла 5/3 600 м
[Sc Ac trans]
+31.0 +22.9 62 +41 +41 опасность
перегрева
1007.2 1001.7
21 20.05 штиль 0 2000 м мгла 6/3 600 м
[Sc Ac trans]
+29.6 +22.2 64 +38 +38 очень
душно
1006.5 1000.9
00 21.05 штиль 0 2000 м мгла 4/1 600 м
[Sc Ac trans]
+28.0 +23.0 74 +37 +38 очень
душно
1006.1 1000.5
03 21.05 ЮВ 1 2000 м мгла ясно +31.0 +25.4 72 +45 +59 опасность
перегрева
1007.2 1001.7 +26.0
06 21.05 штиль 0 2000 м мгла ясно +37.0 +26.9 56 +54 +84 опасность
перегрева
1006.7 1001.3
09 21.05 СВ 1 4000 м мгла ясно +39.4 +26.9 50 +57 +72 опасность
перегрева
1006.7 1001.3
12 21.05 СВ 1 2000 м мгла ясно +36.6 +27.6 60 +56 +57 опасность
перегрева
1002.9 997.5 +40.0
15 21.05 СВ 1 2000 м мгла ясно +33.2 +28.0 74 +54 +54 опасность
перегрева
1005.7 1000.2
18 21.05 СВ 1 2000 м дымка ясно +30.2 +26.3 80 +46 +46 опасность
перегрева
1005.4 999.9
21 21.05 СВ 1 2000 м дымка ясно +28.8 +25.1 80 +42 +42 опасность
перегрева
1004.6 999.0
00 22.05 В 2 1000 м дымка 8/5 600 м
[Sc Ac trans]
+28.4 +25.9 86 +42 +42 опасность
перегрева
1004.2 998.6
03 22.05 штиль 0 2000 м дымка 8/4 600 м
[Sc Ac trans]
+31.4 +27.6 80 +50 +56 опасность
перегрева
1005.7 1000.2 +27.1
06 22.05 В 2 2000 м мгла 5/1 600 м
[Sc Ac trans]
+37.2 +28.4 61 +59 +74 опасность
перегрева
1005.5 1000.1
09 22.05 В 1 2000 м мгла 4/1 600 м
[Sc Ac trans]
+39.2 +28.9 56 +61 +74 опасность
перегрева
1003.0 997.6
12 22.05 СВ 2 2000 м мгла 9/5 540 м
[Cb calv Ac trans]
+37.0 +27.5 58 +56 +56 опасность
перегрева
1001.6 996.2 +39.6
15 22.05 СВ 2 2000 м гроза без осадков 9/6 540 м
[Cb calv Ac trans]
+34.4 +28.2 70 +55 +55 опасность
перегрева
1003.7 998.2
18 22.05 В 5 2000 м гроза, ливневой дождь 10/8 540 м
[Cb calv As op]
+25.2 +22.2 83 +33 +33 очень
душно
1005.9 1000.3 0.6
21 22.05 В 1 1000 м дымка {гроза, дождь} 9/5 540 м
[Cb calv Ac trans]
+25.0 +23.2 90 +33 +33 очень
душно
1004.2 998.6 2
00 23.05 В 1 1000 м дымка 9/5 540 м
[Sc Ac trans]
+24.8 +23.0 90 +33 +33 очень
душно
1005.3 999.7 2
03 23.05 штиль 0 2000 м дымка 9/6 540 м
[Cb calv Ac trans]
+27.6 +23.2 77 +37 +41 очень
душно
1007.3 1001.7 +22.8 2
06 23.05 З 2 2000 м мгла 8/5 600 м
[Sc diur, vesp Ac trans]
+33.6 +24.2 58 +46 +53 опасность
перегрева
1007.0 1001.5
09 23.05 З 2 2000 м мгла 8/5 600 м
[Sc diur, vesp Ac trans]
+37.0 +25.9 53 +52 +56 опасность
перегрева
1004.2 998.8
12 23.05 СЗ 1 2000 м мгла 4/0
[Ac trans]
+35.0 +26.7 62 +52 +53 опасность
перегрева
1002.2 996.8 +37.0
15 23.05 В 1 2000 м мгла 5/3 600 м
[Sc Ac trans]
+32.0 +26.1 71 +48 +48 опасность
перегрева
1004.3 998.8
18 23.05 В 2 2000 м дымка 5/3 600 м
[Sc Ac trans]
+30.4 +26.2 78 +46 +46 опасность
перегрева
1005.6 1000.1
21 23.05 В 2 2000 м дымка 6/3 600 м
[Sc Ac trans]
+28.2 +25.1 83 +41 +41 опасность
перегрева
1005.2 999.6
00 24.05 штиль 0 1000 м дымка 10/6 540 м
[Cb calv Ac trans]
+28.0 +24.9 83 +40 +40 очень
душно
1005.0 999.4
03 24.05 штиль 0 1000 м дымка 9/5 540 м
[Cb calv Ac trans]
+29.0 +24.7 78 +41 +45 опасность
перегрева
1006.5 1000.9 +26.6
06 24.05 СВ 2 2000 м мгла 4/0
[Ac trans]
+34.4 +27.0 65 +52 +70 опасность
перегрева
1004.8 999.3
09 24.05 СВ 2 2000 м мгла 6/4 600 м
[Sc Ac trans]
+34.6 +27.8 68 +55 +62 опасность
перегрева
1002.8 997.4
12 24.05 штиль 0 2000 м мгла 9/5 600 м
[Sc Ac trans]
+31.6 +26.6 75 +49 +49 опасность
перегрева
1001.6 996.1 +35.5
15 24.05 СВ 1 2000 м дымка 9/4 600 м
[Sc Ac trans]
+28.8 +26.0 85 +43 +43 опасность
перегрева
1002.8 997.3
18 24.05 СВ 2 1000 м зарница 9/5 540 м
[Cb calv Ac trans]
+27.4 +25.4 89 +40 +40 очень
душно
1005.1 999.5
21 24.05 СВ 2 1000 м гроза без осадков 9/6 540 м
[Cb calv Ac trans]
+26.6 +24.9 90 +38 +38 очень
душно
1004.4 998.8
00 25.05 СВ 1 1000 м дымка 9/5 540 м
[Sc Ac trans]
+26.4 +25.0 92 +38 +38 очень
душно
1002.8 997.2
03 25.05 В 1 2000 м дымка 10/6 540 м
[Sc As op]
+28.4 +25.6 85 +42 +43 опасность
перегрева
1003.7 998.1 +25.7
06 25.05 В 1 2000 м мгла 9/5 540 м
[Sc Ac trans]
+32.2 +26.7 73 +50 +56 опасность
перегрева
1003.8 998.3

 

Местоположение метеостанции Бхагалпур (Бихар, Индия): широта 25.23 долгота 86.95 высота над уровнем моря 49 м.

В архиве по умолчанию представлена погода в Бхагалпуре за последнюю неделю. Архивные данные за месяц целиком и за предыдущие месяцы, начиная с января 2011 года, Вы можете получить, выбрав интересующий диапазон дат из раскрывающегося списка и нажав кнопку "Ввод!".


*Определитесь, кто Вы:
робот инопланетянин человек

Внимание! Время в таблицах - всемирное. Для получения местного времени необходимо прибавить поправку, которая равна 5.5 ч.

Смотрите также архив погоды в соседних городах и на ближайших метеорологических станциях:

Погода в Пурнеа (Бихар, Индия) (53 км)
Погода в Малда (Западная Бенгалия, Индия) (121 км)
Погода в Биратнагаре (Непал) (142 км)
Погода в Бадалхачги (Бангладеш) (156 км)
Погода в Асансоле (Западная Бенгалия, Индия) (172 км)
Погода в Динаджпуре (Бангладеш) (180 км)
Погода в Бахарампуре (Западная Бенгалия, Индия) (181 км)
Погода в Балургхате (Западная Бенгалия, Индия) (184 км)
Погода в Димле (Бангладеш) (187 км)
Погода в Патне (Бихар, Индия) (190 км)

Пояснения к столбцам:

Ветер - указаны скорость ветра в м/с - средняя за 10 мин, порывы в срок и между сроками (в фигурных скобках) и направление, откуда дует ветер: С - северный, СВ - северо-восточный, В - восточный, ЮВ - юго-восточный, Ю - южный, ЮЗ - юго-западный, З - западный, СЗ - северо-западный.
Видимость - горизонтальная дальность видимости в метрах или километрах. При видимости от 1 до 10 км при отсутствии осадков обычно наблюдается дымка, при ухудшении видимости до 1 км и менее - туман. В сухую погоду видимость может ухудшаться дымом, пылью или мглою.
Явления - указаны атмосферные явления, наблюдавшиеся в срок или в последний час перед сроком; фигурными скобками обозначены явления, наблюдавшиеся между сроками (за 1-3 часа до срока); квадратными скобками обозначены град или гололедные отложения с указанием их диаметра в мм.
Облачность - указаны через наклонную черту общая и нижняя облачность в баллах и высота нижней границы облаков в метрах; квадратными скобками обозначены формы облаков: Ci - перистые, Cs - перисто-слоистые, Cc - перисто-кучевые, Ac - высококучевые, As - высокослоистые, Sc - слоисто-кучевые, Ns - слоисто-дождевые, Cu - кучевые, Cb - кучево-дождевые. Подробнее классификацию облаков см. в Атласе облаков (PDF).
T - Температура воздуха - температура, измеренная на высоте 2 м над землей.
Td - Температура точки росы - температура, при понижении до которой содержащийся в воздухе водяной пар достигнет насыщения.
f - Относительная влажность воздуха - влажноcть воздуха, измеренная на высоте 2 м над землей.
Te - Эффективная температура - температура, которую ощущает одетый по сезону человек в тени. Характеристика душности погоды. При расчете учитывается влияние влажности воздуха и скорости ветра на теплоощущения человека.
Tes - Эффективная температура на солнце - температура, которую ощущает человек, с поправкой на солнечный нагрев. Характеристика знойности погоды. Зависит от высоты солнца над горизонтом, облачности и скорости ветра. Ночью, в пасмурную погоду, а также при ветре 12 м/с и более поправка равна нулю.
P - Атмосферное давление - приведенное к уровню моря атмосферное давление.
Po - Атмосферное давление - измеренное на уровне метеостанции атмосферное давление.
Tmin - Минимальная температура - минимум температуры воздуха на высоте 2 м над землей.
Tmax - Максимальная температура - максимум температуры воздуха на высоте 2 м над землей.
R - Количество осадков - Количество выпавших осадков за период времени, мм. При наведении курсора мыши на число - период времени, за который выпало указанное количество осадков.
R24 - Количество осадков - Количество выпавших осадков за 24 часа, мм.
S - Снежный покров - Высота снежного покрова, см. При наведении курсора мыши на число - состояние снежного покрова и степень покрытия местности в баллах.